Location: ??????
(55.2000°N, 38.3000°E)
Time: 17:08:53
(UTC+00:00)

CZ-4 R/B - Pass Details

Date: 15 November 2025
Orbit: 675 x 744 km, 98.7° (Epoch: 14 December)

Event Time Altitude Azimuth Distance (km) Brightness Sun altitude
Rises 02:31:17 0° 17° (NNE) 3,165 7.4 -20.8°
Reaches altitude 10° 02:33:37 10° 21° (NNE) 2,229 6.6 -20.5°
Maximum altitude 02:38:29 65° 103° (ESE) 790 4.3 -19.8°
Drops below altitude 10° 02:43:12 10° 186° (S) 2,168 6.3 -19.1°
Sets 02:45:27 0° 189° (S) 3,071 7.1 -18.8°
